Year,Month,Day,Hour,Minute,Value (Times are PST for temperature in C)
2016,05,20,00,00,11.40
2016,05,20,00,01,11.40
2016,05,20,00,02,11.40
2016,05,20,00,03,11.40
2016,05,20,00,04,11.40
2016,05,20,00,05,11.30
2016,05,20,00,06,11.30
2016,05,20,00,07,11.30
2016,05,20,00,08,11.30
2016,05,20,00,09,11.30
2016,05,20,00,10,11.30
2016,05,20,00,11,11.30
2016,05,20,00,12,11.30
2016,05,20,00,13,11.30
2016,05,20,00,14,11.20
2016,05,20,00,15,11.20
2016,05,20,00,16,11.20
2016,05,20,00,17,11.20
2016,05,20,00,18,11.20
2016,05,20,00,19,11.20
2016,05,20,00,20,11.10
2016,05,20,00,21,11.10
2016,05,20,00,22,11.10
2016,05,20,00,23,11.00
2016,05,20,00,24,10.90
2016,05,20,00,25,10.90
2016,05,20,00,26,10.90
2016,05,20,00,27,10.80
2016,05,20,00,28,10.80
2016,05,20,00,29,10.80
2016,05,20,00,30,10.70
2016,05,20,00,31,10.70
2016,05,20,00,32,10.70
2016,05,20,00,33,10.70
2016,05,20,00,34,10.70
2016,05,20,00,35,10.60
2016,05,20,00,36,10.60
2016,05,20,00,37,10.60
2016,05,20,00,38,10.60
2016,05,20,00,39,10.60
2016,05,20,00,40,10.60
2016,05,20,00,41,10.60
2016,05,20,00,42,10.60
2016,05,20,00,43,10.60
2016,05,20,00,44,10.60
2016,05,20,00,45,10.60
2016,05,20,00,46,10.60
2016,05,20,00,47,10.50
2016,05,20,00,48,10.40
2016,05,20,00,49,10.40
2016,05,20,00,50,10.40
2016,05,20,00,51,10.40
2016,05,20,00,52,10.40
2016,05,20,00,53,10.40
2016,05,20,00,54,10.40
2016,05,20,00,55,10.40
2016,05,20,00,56,10.30
2016,05,20,00,57,10.30
2016,05,20,00,58,10.30
2016,05,20,00,59,10.20
2016,05,20,01,00,10.20
2016,05,20,01,01,10.20
2016,05,20,01,02,10.10
2016,05,20,01,03,10.10
2016,05,20,01,04,10.10
2016,05,20,01,05,10.10
2016,05,20,01,06,10.10
2016,05,20,01,07,10.10
2016,05,20,01,08,10.10
2016,05,20,01,09,10.10
2016,05,20,01,10,10.10
2016,05,20,01,11,10.10
2016,05,20,01,12,10.10
2016,05,20,01,13,10.10
2016,05,20,01,14,10.10
2016,05,20,01,15,10.10
2016,05,20,01,16,10.10
2016,05,20,01,17,10.10
2016,05,20,01,18,10.10
2016,05,20,01,19,10.10
2016,05,20,01,20,10.10
2016,05,20,01,21,10.10
2016,05,20,01,22,10.20
2016,05,20,01,23,10.20
2016,05,20,01,24,10.20
2016,05,20,01,25,10.20
2016,05,20,01,26,10.20
2016,05,20,01,27,10.30
2016,05,20,01,28,10.30
2016,05,20,01,29,10.20
2016,05,20,01,30,10.20
2016,05,20,01,31,10.20
2016,05,20,01,32,10.20
2016,05,20,01,33,10.20
2016,05,20,01,34,10.20
2016,05,20,01,35,10.10
2016,05,20,01,36,10.10
2016,05,20,01,37,10.10
2016,05,20,01,38,10.10
2016,05,20,01,39,10.10
2016,05,20,01,40,10.10
2016,05,20,01,41,10.10
2016,05,20,01,42,10.10
2016,05,20,01,43,10.10
2016,05,20,01,44,10.10
2016,05,20,01,45,10.10
2016,05,20,01,46,10.10
2016,05,20,01,47,10.10
2016,05,20,01,48,10.10
2016,05,20,01,49,10.10
2016,05,20,01,50,10.10
2016,05,20,01,51,10.20
2016,05,20,01,52,10.20
2016,05,20,01,53,10.20
2016,05,20,01,54,10.20
2016,05,20,01,55,10.20
2016,05,20,01,56,10.20
2016,05,20,01,57,10.20
2016,05,20,01,58,10.10
2016,05,20,01,59,10.10
2016,05,20,02,00,10.10
2016,05,20,02,01,10.10
2016,05,20,02,02,10.10
2016,05,20,02,03,10.10
2016,05,20,02,04,10.10
2016,05,20,02,05,10.10
2016,05,20,02,06,10.10
2016,05,20,02,07,10.10
2016,05,20,02,08,10.10
2016,05,20,02,09,10.10
2016,05,20,02,10,10.10
2016,05,20,02,11,10.10
2016,05,20,02,12,10.10
2016,05,20,02,13,10.10
2016,05,20,02,14,10.10
2016,05,20,02,15,10.10
2016,05,20,02,16,10.10
2016,05,20,02,17,10.10
2016,05,20,02,18,10.10
2016,05,20,02,19,10.10
2016,05,20,02,20,10.10
2016,05,20,02,21,10.10
2016,05,20,02,22,10.10
2016,05,20,02,23,10.10
2016,05,20,02,24,10.10
2016,05,20,02,25,10.10
2016,05,20,02,26,10.10
2016,05,20,02,27,10.10
2016,05,20,02,28,10.10
2016,05,20,02,29,10.10
2016,05,20,02,30,10.00
2016,05,20,02,31,9.90
2016,05,20,02,32,9.90
2016,05,20,02,33,9.90
2016,05,20,02,34,9.90
2016,05,20,02,35,9.90
2016,05,20,02,36,9.90
2016,05,20,02,37,9.90
2016,05,20,02,38,9.90
2016,05,20,02,39,9.90
2016,05,20,02,40,9.90
2016,05,20,02,41,9.90
2016,05,20,02,42,9.90
2016,05,20,02,43,9.90
2016,05,20,02,44,9.80
2016,05,20,02,45,9.80
2016,05,20,02,46,9.80
2016,05,20,02,47,9.80
2016,05,20,02,48,9.80
2016,05,20,02,49,9.80
2016,05,20,02,50,9.80
2016,05,20,02,51,9.80
2016,05,20,02,52,9.70
2016,05,20,02,53,9.70
2016,05,20,02,54,9.70
2016,05,20,02,55,9.70
2016,05,20,02,56,9.70
2016,05,20,02,57,9.70
2016,05,20,02,58,9.70
2016,05,20,02,59,9.70
2016,05,20,03,00,9.70
2016,05,20,03,01,9.70
2016,05,20,03,02,9.70
2016,05,20,03,03,9.70
2016,05,20,03,04,9.70
2016,05,20,03,05,9.70
2016,05,20,03,06,9.70
2016,05,20,03,07,9.70
2016,05,20,03,08,9.70
2016,05,20,03,09,9.70
2016,05,20,03,10,9.70
2016,05,20,03,11,9.70
2016,05,20,03,12,9.70
2016,05,20,03,13,9.70
2016,05,20,03,14,9.70
2016,05,20,03,15,9.70
2016,05,20,03,16,9.70
2016,05,20,03,17,9.70
2016,05,20,03,18,9.70
2016,05,20,03,19,9.70
2016,05,20,03,20,9.70
2016,05,20,03,21,9.70
2016,05,20,03,22,9.70
2016,05,20,03,23,9.70
2016,05,20,03,24,9.70
2016,05,20,03,25,9.70
2016,05,20,03,26,9.70
2016,05,20,03,27,9.70
2016,05,20,03,28,9.60
2016,05,20,03,29,9.60
2016,05,20,03,30,9.60
2016,05,20,03,31,9.60
2016,05,20,03,32,9.60
2016,05,20,03,33,9.60
2016,05,20,03,34,9.60
2016,05,20,03,35,9.60
2016,05,20,03,36,9.50
2016,05,20,03,37,9.50
2016,05,20,03,38,9.50
2016,05,20,03,39,9.50
2016,05,20,03,40,9.50
2016,05,20,03,41,9.50
2016,05,20,03,42,9.50
2016,05,20,03,43,9.50
2016,05,20,03,44,9.60
2016,05,20,03,45,9.60
2016,05,20,03,46,9.60
2016,05,20,03,47,9.60
2016,05,20,03,48,9.60
2016,05,20,03,49,9.60
2016,05,20,03,50,9.60
2016,05,20,03,51,9.60
2016,05,20,03,52,9.60
2016,05,20,03,53,9.60
2016,05,20,03,54,9.70
2016,05,20,03,55,9.70
2016,05,20,03,56,9.70
2016,05,20,03,57,9.70
2016,05,20,03,58,9.70
2016,05,20,03,59,9.70
2016,05,20,04,00,9.70
2016,05,20,04,01,9.70
2016,05,20,04,02,9.70
2016,05,20,04,03,9.70
2016,05,20,04,04,9.70
2016,05,20,04,05,9.70
2016,05,20,04,06,9.70
2016,05,20,04,07,9.60
2016,05,20,04,08,9.60
2016,05,20,04,09,9.60
2016,05,20,04,10,9.50
2016,05,20,04,11,9.50
2016,05,20,04,12,9.50
2016,05,20,04,13,9.50
2016,05,20,04,14,9.50
2016,05,20,04,15,9.60
2016,05,20,04,16,9.60
2016,05,20,04,17,9.60
2016,05,20,04,18,9.60
2016,05,20,04,19,9.50
2016,05,20,04,20,9.50
2016,05,20,04,21,9.50
2016,05,20,04,22,9.50
2016,05,20,04,23,9.50
2016,05,20,04,24,9.50
2016,05,20,04,25,9.50
2016,05,20,04,26,9.50
2016,05,20,04,27,9.50
2016,05,20,04,28,9.50
2016,05,20,04,29,9.50
2016,05,20,04,30,9.50
2016,05,20,04,31,9.50
2016,05,20,04,32,9.50
2016,05,20,04,33,9.50
2016,05,20,04,34,9.50
2016,05,20,04,35,9.50
2016,05,20,04,36,9.50
2016,05,20,04,37,9.50
2016,05,20,04,38,9.60
2016,05,20,04,39,9.60
2016,05,20,04,40,9.60
2016,05,20,04,41,9.60
2016,05,20,04,42,9.60
2016,05,20,04,43,9.60
2016,05,20,04,44,9.60
2016,05,20,04,45,9.60
2016,05,20,04,46,9.60
2016,05,20,04,47,9.70
2016,05,20,04,48,9.70
2016,05,20,04,49,9.70
2016,05,20,04,50,9.70
2016,05,20,04,51,9.70
2016,05,20,04,52,9.70
2016,05,20,04,53,9.70
2016,05,20,04,54,9.70
2016,05,20,04,55,9.70
2016,05,20,04,56,9.70
2016,05,20,04,57,9.70
2016,05,20,04,58,9.70
2016,05,20,04,59,9.70
2016,05,20,05,00,9.70
2016,05,20,05,01,9.70
2016,05,20,05,02,9.70
2016,05,20,05,03,9.80
2016,05,20,05,04,9.70
2016,05,20,05,05,9.70
2016,05,20,05,06,9.80
2016,05,20,05,07,9.80
2016,05,20,05,08,9.80
2016,05,20,05,09,9.80
2016,05,20,05,10,9.80
2016,05,20,05,11,9.80
2016,05,20,05,12,9.70
2016,05,20,05,13,9.70
2016,05,20,05,14,9.70
2016,05,20,05,15,9.70
2016,05,20,05,16,9.70
2016,05,20,05,17,9.70
2016,05,20,05,18,9.70
2016,05,20,05,19,9.70
2016,05,20,05,20,9.70
2016,05,20,05,21,9.70
2016,05,20,05,22,9.70
2016,05,20,05,23,9.70
2016,05,20,05,24,9.70
2016,05,20,05,25,9.70
2016,05,20,05,26,9.70
2016,05,20,05,27,9.70
2016,05,20,05,28,9.70
2016,05,20,05,29,9.70
2016,05,20,05,30,9.70
2016,05,20,05,31,9.70
2016,05,20,05,32,9.80
2016,05,20,05,33,9.80
2016,05,20,05,34,9.80
2016,05,20,05,35,9.80
2016,05,20,05,36,9.80
2016,05,20,05,37,9.80
2016,05,20,05,38,9.90
2016,05,20,05,39,9.90
2016,05,20,05,40,9.90
2016,05,20,05,41,9.90
2016,05,20,05,42,9.90
2016,05,20,05,43,9.90
2016,05,20,05,44,9.90
2016,05,20,05,45,9.80
2016,05,20,05,46,9.80
2016,05,20,05,47,9.80
2016,05,20,05,48,9.80
2016,05,20,05,49,9.70
2016,05,20,05,50,9.70
2016,05,20,05,51,9.70
2016,05,20,05,52,9.70
2016,05,20,05,53,9.70
2016,05,20,05,54,9.80
2016,05,20,05,55,9.80
2016,05,20,05,56,9.80
2016,05,20,05,57,9.80
2016,05,20,05,58,9.80
2016,05,20,05,59,9.80
2016,05,20,06,00,9.80
2016,05,20,06,01,9.90
2016,05,20,06,02,9.90
2016,05,20,06,03,9.90
2016,05,20,06,04,9.90
2016,05,20,06,05,9.90
2016,05,20,06,06,9.90
2016,05,20,06,07,9.90
2016,05,20,06,08,9.80
2016,05,20,06,09,9.90
2016,05,20,06,10,9.90
2016,05,20,06,11,9.90
2016,05,20,06,12,9.90
2016,05,20,06,13,9.90
2016,05,20,06,14,9.90
2016,05,20,06,15,9.90
2016,05,20,06,16,9.90
2016,05,20,06,17,9.90
2016,05,20,06,18,9.90
2016,05,20,06,19,9.90
2016,05,20,06,20,9.90
2016,05,20,06,21,9.90
2016,05,20,06,22,9.90
2016,05,20,06,23,9.90
2016,05,20,06,24,9.90
2016,05,20,06,25,9.90
2016,05,20,06,26,9.90
2016,05,20,06,27,10.10
2016,05,20,06,28,10.10
2016,05,20,06,29,10.10
2016,05,20,06,30,10.00
2016,05,20,06,31,9.90
2016,05,20,06,32,9.90
2016,05,20,06,33,9.90
2016,05,20,06,34,9.90
2016,05,20,06,35,9.90
2016,05,20,06,36,9.90
2016,05,20,06,37,9.90
2016,05,20,06,38,9.90
2016,05,20,06,39,9.90
2016,05,20,06,40,9.90
2016,05,20,06,41,9.90
2016,05,20,06,42,9.90
2016,05,20,06,43,9.90
2016,05,20,06,44,9.90
2016,05,20,06,45,9.90
2016,05,20,06,46,9.90
2016,05,20,06,47,9.90
2016,05,20,06,48,9.90
2016,05,20,06,49,10.00
2016,05,20,06,50,10.10
2016,05,20,06,51,10.10
2016,05,20,06,52,10.00
2016,05,20,06,53,9.90
2016,05,20,06,54,9.90
2016,05,20,06,55,9.90
2016,05,20,06,56,9.90
2016,05,20,06,57,9.90
2016,05,20,06,58,9.90
2016,05,20,06,59,9.90
2016,05,20,07,00,9.90
2016,05,20,07,01,9.90
2016,05,20,07,02,9.90
2016,05,20,07,03,9.90
2016,05,20,07,04,9.90
2016,05,20,07,05,9.90
2016,05,20,07,06,10.00
2016,05,20,07,07,10.10
2016,05,20,07,08,10.10
2016,05,20,07,09,10.10
2016,05,20,07,10,10.10
2016,05,20,07,11,10.10
2016,05,20,07,12,10.10
2016,05,20,07,13,10.10
2016,05,20,07,14,10.10
2016,05,20,07,15,10.20
2016,05,20,07,16,10.20
2016,05,20,07,17,10.10
2016,05,20,07,18,10.10
2016,05,20,07,19,10.10
2016,05,20,07,20,10.10
2016,05,20,07,21,10.10
2016,05,20,07,22,10.10
2016,05,20,07,23,10.10
2016,05,20,07,24,10.10
2016,05,20,07,25,10.10
2016,05,20,07,26,10.10
2016,05,20,07,27,10.10
2016,05,20,07,28,10.10
2016,05,20,07,29,10.10
2016,05,20,07,30,10.10
2016,05,20,07,31,10.10
2016,05,20,07,32,10.10
2016,05,20,07,33,10.10
2016,05,20,07,34,10.10
2016,05,20,07,35,10.20
2016,05,20,07,36,10.20
2016,05,20,07,37,10.20
2016,05,20,07,38,10.30
2016,05,20,07,39,10.30
2016,05,20,07,40,10.30
2016,05,20,07,41,10.40
2016,05,20,07,42,10.40
2016,05,20,07,43,10.40
2016,05,20,07,44,10.40
2016,05,20,07,45,10.40
2016,05,20,07,46,10.30
2016,05,20,07,47,10.30
2016,05,20,07,48,10.30
2016,05,20,07,49,10.40
2016,05,20,07,50,10.40
2016,05,20,07,51,10.40
2016,05,20,07,52,10.40
2016,05,20,07,53,10.40
2016,05,20,07,54,10.40
2016,05,20,07,55,10.50
2016,05,20,07,56,10.60
2016,05,20,07,57,10.70
2016,05,20,07,58,10.80
2016,05,20,07,59,10.80
2016,05,20,08,00,10.90
2016,05,20,08,01,11.10
2016,05,20,08,02,11.20
2016,05,20,08,03,11.30
2016,05,20,08,04,11.30
2016,05,20,08,05,11.30
2016,05,20,08,06,11.30
2016,05,20,08,07,11.40
2016,05,20,08,08,11.40
2016,05,20,08,09,11.40
2016,05,20,08,10,11.40
2016,05,20,08,11,11.40
2016,05,20,08,12,11.40
2016,05,20,08,13,11.50
2016,05,20,08,14,11.60
2016,05,20,08,15,11.60
2016,05,20,08,16,11.60
2016,05,20,08,17,11.60
2016,05,20,08,18,11.60
2016,05,20,08,19,11.60
2016,05,20,08,20,11.60
2016,05,20,08,21,11.70
2016,05,20,08,22,11.70
2016,05,20,08,23,11.70
2016,05,20,08,24,11.70
2016,05,20,08,25,11.70
2016,05,20,08,26,11.70
2016,05,20,08,27,11.70
2016,05,20,08,28,11.80
2016,05,20,08,29,11.80
2016,05,20,08,30,11.80
2016,05,20,08,31,11.90
2016,05,20,08,32,12.00
2016,05,20,08,33,12.00
2016,05,20,08,34,11.90
2016,05,20,08,35,11.90
2016,05,20,08,36,11.90
2016,05,20,08,37,11.80
2016,05,20,08,38,11.80
2016,05,20,08,39,11.80
2016,05,20,08,40,11.90
2016,05,20,08,41,11.90
2016,05,20,08,42,12.00
2016,05,20,08,43,12.00
2016,05,20,08,44,12.00
2016,05,20,08,45,12.00
2016,05,20,08,46,12.10
2016,05,20,08,47,12.10
2016,05,20,08,48,12.10
2016,05,20,08,49,12.00
2016,05,20,08,50,12.00
2016,05,20,08,51,12.00
2016,05,20,08,52,12.00
2016,05,20,08,53,12.10
2016,05,20,08,54,12.00
2016,05,20,08,55,12.00
2016,05,20,08,56,11.90
2016,05,20,08,57,11.80
2016,05,20,08,58,11.80
2016,05,20,08,59,11.80
2016,05,20,09,00,12.00
2016,05,20,09,01,12.10
2016,05,20,09,02,12.20
2016,05,20,09,03,12.10
2016,05,20,09,04,12.20
2016,05,20,09,05,12.30
2016,05,20,09,06,12.30
2016,05,20,09,07,12.40
2016,05,20,09,08,12.50
2016,05,20,09,09,12.70
2016,05,20,09,10,12.70
2016,05,20,09,11,12.80
2016,05,20,09,12,12.80
2016,05,20,09,13,12.90
2016,05,20,09,14,13.00
2016,05,20,09,15,13.10
2016,05,20,09,16,13.20
2016,05,20,09,17,13.20
2016,05,20,09,18,13.20
2016,05,20,09,19,13.20
2016,05,20,09,20,13.10
2016,05,20,09,21,13.00
2016,05,20,09,22,13.00
2016,05,20,09,23,13.00
2016,05,20,09,24,13.00
2016,05,20,09,25,13.10
2016,05,20,09,26,13.10
2016,05,20,09,27,13.10
2016,05,20,09,28,13.00
2016,05,20,09,29,13.00
2016,05,20,09,30,12.90
2016,05,20,09,31,12.90
2016,05,20,09,32,13.00
2016,05,20,09,33,13.10
2016,05,20,09,34,13.20
2016,05,20,09,35,13.20
2016,05,20,09,36,13.00
2016,05,20,09,37,12.90
2016,05,20,09,38,12.80
2016,05,20,09,39,12.70
2016,05,20,09,40,12.60
2016,05,20,09,41,12.60
2016,05,20,09,42,12.50
2016,05,20,09,43,12.40
2016,05,20,09,44,12.40
2016,05,20,09,45,12.40
2016,05,20,09,46,12.40
2016,05,20,09,47,12.40
2016,05,20,09,48,12.40
2016,05,20,09,49,12.40
2016,05,20,09,50,12.40
2016,05,20,09,51,12.40
2016,05,20,09,52,12.50
2016,05,20,09,53,12.60
2016,05,20,09,54,12.70
2016,05,20,09,55,12.80
2016,05,20,09,56,12.80
2016,05,20,09,57,12.70
2016,05,20,09,58,12.50
2016,05,20,09,59,12.40
2016,05,20,10,00,12.40
2016,05,20,10,01,12.40
2016,05,20,10,02,12.40
2016,05,20,10,03,12.40
2016,05,20,10,04,12.50
2016,05,20,10,05,12.50
2016,05,20,10,06,12.60
2016,05,20,10,07,12.60
2016,05,20,10,08,12.60
2016,05,20,10,09,12.60
2016,05,20,10,10,12.50
2016,05,20,10,11,12.50
2016,05,20,10,12,12.50
2016,05,20,10,13,12.60
2016,05,20,10,14,12.70
2016,05,20,10,15,12.80
2016,05,20,10,16,12.80
2016,05,20,10,17,12.80
2016,05,20,10,18,12.80
2016,05,20,10,19,12.90
2016,05,20,10,20,13.00
2016,05,20,10,21,13.00
2016,05,20,10,22,13.20
2016,05,20,10,23,13.30
2016,05,20,10,24,13.50
2016,05,20,10,25,13.60
2016,05,20,10,26,13.70
2016,05,20,10,27,13.60
2016,05,20,10,28,13.60
2016,05,20,10,29,13.50
2016,05,20,10,30,13.60
2016,05,20,10,31,13.50
2016,05,20,10,32,13.50
2016,05,20,10,33,13.50
2016,05,20,10,34,13.50
2016,05,20,10,35,13.50
2016,05,20,10,36,13.40
2016,05,20,10,37,13.40
2016,05,20,10,38,13.40
2016,05,20,10,39,13.30
2016,05,20,10,40,13.40
2016,05,20,10,41,13.50
2016,05,20,10,42,13.50
2016,05,20,10,43,13.50
2016,05,20,10,44,13.30
2016,05,20,10,45,13.30
2016,05,20,10,46,13.10
2016,05,20,10,47,13.00
2016,05,20,10,48,12.90
2016,05,20,10,49,12.90
2016,05,20,10,50,13.00
2016,05,20,10,51,13.10
2016,05,20,10,52,13.10
2016,05,20,10,53,13.00
2016,05,20,10,54,13.00
2016,05,20,10,55,13.00
2016,05,20,10,56,12.90
2016,05,20,10,57,12.80
2016,05,20,10,58,12.60
2016,05,20,10,59,12.50
2016,05,20,11,00,12.40
2016,05,20,11,01,12.20
2016,05,20,11,02,12.10
2016,05,20,11,03,12.10
2016,05,20,11,04,12.10
2016,05,20,11,05,12.10
2016,05,20,11,06,12.20
2016,05,20,11,07,12.20
2016,05,20,11,08,12.20
2016,05,20,11,09,12.30
2016,05,20,11,10,12.30
2016,05,20,11,11,12.30
2016,05,20,11,12,12.30
2016,05,20,11,13,12.20
2016,05,20,11,14,12.10
2016,05,20,11,15,12.10
2016,05,20,11,16,12.20
2016,05,20,11,17,12.30
2016,05,20,11,18,12.30
2016,05,20,11,19,12.30
2016,05,20,11,20,12.30
2016,05,20,11,21,12.30
2016,05,20,11,22,12.30
2016,05,20,11,23,12.30
2016,05,20,11,24,12.40
2016,05,20,11,25,12.50
2016,05,20,11,26,12.60
2016,05,20,11,27,12.60
2016,05,20,11,28,12.60
2016,05,20,11,29,12.60
2016,05,20,11,30,12.60
2016,05,20,11,31,12.60
2016,05,20,11,32,12.70
2016,05,20,11,33,12.80
2016,05,20,11,34,12.80
2016,05,20,11,35,12.80
2016,05,20,11,36,12.80
2016,05,20,11,37,12.80
2016,05,20,11,38,12.70
2016,05,20,11,39,12.60
2016,05,20,11,40,12.50
2016,05,20,11,41,12.30
2016,05,20,11,42,12.30
2016,05,20,11,43,12.30
2016,05,20,11,44,12.30
2016,05,20,11,45,12.40
2016,05,20,11,46,12.50
2016,05,20,11,47,12.60
2016,05,20,11,48,12.70
2016,05,20,11,49,12.90
2016,05,20,11,50,13.00
2016,05,20,11,51,13.00
2016,05,20,11,52,13.00
2016,05,20,11,53,12.80
2016,05,20,11,54,12.70
2016,05,20,11,55,12.50
2016,05,20,11,56,12.50
2016,05,20,11,57,12.50
2016,05,20,11,58,12.50
2016,05,20,11,59,12.50
2016,05,20,12,00,12.50
2016,05,20,12,01,12.50
2016,05,20,12,02,12.70
2016,05,20,12,03,12.80
2016,05,20,12,04,12.90
2016,05,20,12,05,13.00
2016,05,20,12,06,13.10
2016,05,20,12,07,13.10
2016,05,20,12,08,13.20
2016,05,20,12,09,13.20
2016,05,20,12,10,13.30
2016,05,20,12,11,13.30
2016,05,20,12,12,13.30
2016,05,20,12,13,13.30
2016,05,20,12,14,13.30
2016,05,20,12,15,13.30
2016,05,20,12,16,13.30
2016,05,20,12,17,13.40
2016,05,20,12,18,13.50
2016,05,20,12,19,13.50
2016,05,20,12,20,13.60
2016,05,20,12,21,13.50
2016,05,20,12,22,13.40
2016,05,20,12,23,13.30
2016,05,20,12,24,13.20
2016,05,20,12,25,13.10
2016,05,20,12,26,13.10
2016,05,20,12,27,13.20
2016,05,20,12,28,13.10
2016,05,20,12,29,13.20
2016,05,20,12,30,13.10
2016,05,20,12,31,13.10
2016,05,20,12,32,13.10
2016,05,20,12,33,13.20
2016,05,20,12,34,13.20
2016,05,20,12,35,13.20
2016,05,20,12,36,13.30
2016,05,20,12,37,13.40
2016,05,20,12,38,13.60
2016,05,20,12,39,13.60
2016,05,20,12,40,13.50
2016,05,20,12,41,13.40
2016,05,20,12,42,13.40
2016,05,20,12,43,13.40
2016,05,20,12,44,13.30
2016,05,20,12,45,13.30
2016,05,20,12,46,13.40
2016,05,20,12,47,13.50
2016,05,20,12,48,13.70
2016,05,20,12,49,13.80
2016,05,20,12,50,13.90
2016,05,20,12,51,13.90
2016,05,20,12,52,13.80
2016,05,20,12,53,13.80
2016,05,20,12,54,13.90
2016,05,20,12,55,14.00
2016,05,20,12,56,14.10
2016,05,20,12,57,14.10
2016,05,20,12,58,14.20
2016,05,20,12,59,14.20
2016,05,20,13,00,14.20
2016,05,20,13,01,14.20
2016,05,20,13,02,14.40
2016,05,20,13,03,14.50
2016,05,20,13,04,14.60
2016,05,20,13,05,14.80
2016,05,20,13,06,14.90
2016,05,20,13,07,14.90
2016,05,20,13,08,15.00
2016,05,20,13,09,14.90
2016,05,20,13,10,14.80
2016,05,20,13,11,14.80
2016,05,20,13,12,14.80
2016,05,20,13,13,14.80
2016,05,20,13,14,14.80
2016,05,20,13,15,14.90
2016,05,20,13,16,15.00
2016,05,20,13,17,15.00
2016,05,20,13,18,15.10
2016,05,20,13,19,15.10
2016,05,20,13,20,15.00
2016,05,20,13,21,14.90
2016,05,20,13,22,14.90
2016,05,20,13,23,14.80
2016,05,20,13,24,14.80
2016,05,20,13,25,14.80
2016,05,20,13,26,14.80
2016,05,20,13,27,14.70
2016,05,20,13,28,14.50
2016,05,20,13,29,14.30
2016,05,20,13,30,14.20
2016,05,20,13,31,14.20
2016,05,20,13,32,14.20
2016,05,20,13,33,14.20
2016,05,20,13,34,14.20
2016,05,20,13,35,14.20
2016,05,20,13,36,14.20
2016,05,20,13,37,14.40
2016,05,20,13,38,14.50
2016,05,20,13,39,14.60
2016,05,20,13,40,14.70
2016,05,20,13,41,14.70
2016,05,20,13,42,14.70
2016,05,20,13,43,14.70
2016,05,20,13,44,14.70
2016,05,20,13,45,14.60
2016,05,20,13,46,14.60
2016,05,20,13,47,14.50
2016,05,20,13,48,14.50
2016,05,20,13,49,14.50
2016,05,20,13,50,14.50
2016,05,20,13,51,14.50
2016,05,20,13,52,14.40
2016,05,20,13,53,14.40
2016,05,20,13,54,14.40
2016,05,20,13,55,14.30
2016,05,20,13,56,14.20
2016,05,20,13,57,14.30
2016,05,20,13,58,14.40
2016,05,20,13,59,14.50
2016,05,20,14,00,14.50
2016,05,20,14,01,14.60
2016,05,20,14,02,14.50
2016,05,20,14,03,14.50
2016,05,20,14,04,14.50
2016,05,20,14,05,14.40
2016,05,20,14,06,14.30
2016,05,20,14,07,14.30
2016,05,20,14,08,14.30
2016,05,20,14,09,14.40
2016,05,20,14,10,14.50
2016,05,20,14,11,14.50
2016,05,20,14,12,14.50
2016,05,20,14,13,14.70
2016,05,20,14,14,14.60
2016,05,20,14,15,14.70
2016,05,20,14,16,14.80
2016,05,20,14,17,14.60
2016,05,20,14,18,14.50
2016,05,20,14,19,14.40
2016,05,20,14,20,14.30
2016,05,20,14,21,14.30
2016,05,20,14,22,14.30
2016,05,20,14,23,14.30
2016,05,20,14,24,14.40
2016,05,20,14,25,14.50
2016,05,20,14,26,14.50
2016,05,20,14,27,14.50
2016,05,20,14,28,14.60
2016,05,20,14,29,14.70
2016,05,20,14,30,14.80
2016,05,20,14,31,14.90
2016,05,20,14,32,14.90
2016,05,20,14,33,15.00
2016,05,20,14,34,15.00
2016,05,20,14,35,15.00
2016,05,20,14,36,15.00
2016,05,20,14,37,14.90
2016,05,20,14,38,14.90
2016,05,20,14,39,14.90
2016,05,20,14,40,14.80
2016,05,20,14,41,14.80
2016,05,20,14,42,14.80
2016,05,20,14,43,14.80
2016,05,20,14,44,14.80
2016,05,20,14,45,14.90
2016,05,20,14,46,15.00
2016,05,20,14,47,15.10
2016,05,20,14,48,15.10
2016,05,20,14,49,15.20
2016,05,20,14,50,15.30
2016,05,20,14,51,15.40
2016,05,20,14,52,15.60
2016,05,20,14,53,15.70
2016,05,20,14,54,15.70
2016,05,20,14,55,15.80
2016,05,20,14,56,15.70
2016,05,20,14,57,15.80
2016,05,20,14,58,15.80
2016,05,20,14,59,15.70
2016,05,20,15,00,15.70
2016,05,20,15,01,15.80
2016,05,20,15,02,15.80
2016,05,20,15,03,15.80
2016,05,20,15,04,15.90
2016,05,20,15,05,15.90
2016,05,20,15,06,16.10
2016,05,20,15,07,16.10
2016,05,20,15,08,16.10
2016,05,20,15,09,16.20
2016,05,20,15,10,16.20
2016,05,20,15,11,16.30
2016,05,20,15,12,16.30
2016,05,20,15,13,16.30
2016,05,20,15,14,16.10
2016,05,20,15,15,16.00
2016,05,20,15,16,15.90
2016,05,20,15,17,15.90
2016,05,20,15,18,16.00
2016,05,20,15,19,16.10
2016,05,20,15,20,16.10
2016,05,20,15,21,16.10
2016,05,20,15,22,16.10
2016,05,20,15,23,16.10
2016,05,20,15,24,16.00
2016,05,20,15,25,16.10
2016,05,20,15,26,16.10
2016,05,20,15,27,16.20
2016,05,20,15,28,16.20
2016,05,20,15,29,16.20
2016,05,20,15,30,16.20
2016,05,20,15,31,16.20
2016,05,20,15,32,16.30
2016,05,20,15,33,16.40
2016,05,20,15,34,16.40
2016,05,20,15,35,16.30
2016,05,20,15,36,16.10
2016,05,20,15,37,16.10
2016,05,20,15,38,16.20
2016,05,20,15,39,16.30
2016,05,20,15,40,16.40
2016,05,20,15,41,16.40
2016,05,20,15,42,16.40
2016,05,20,15,43,16.40
2016,05,20,15,44,16.40
2016,05,20,15,45,16.40
2016,05,20,15,46,16.40
2016,05,20,15,47,16.40
2016,05,20,15,48,16.40
2016,05,20,15,49,16.20
2016,05,20,15,50,16.10
2016,05,20,15,51,16.10
2016,05,20,15,52,16.10
2016,05,20,15,53,16.20
2016,05,20,15,54,16.30
2016,05,20,15,55,16.40
2016,05,20,15,56,16.40
2016,05,20,15,57,16.40
2016,05,20,15,58,16.40
2016,05,20,15,59,16.60
2016,05,20,16,00,16.50
2016,05,20,16,01,16.40
2016,05,20,16,02,16.40
2016,05,20,16,03,16.40
2016,05,20,16,04,16.40
2016,05,20,16,05,16.40
2016,05,20,16,06,16.30
2016,05,20,16,07,16.20
2016,05,20,16,08,16.20
2016,05,20,16,09,16.30
2016,05,20,16,10,16.30
2016,05,20,16,11,16.30
2016,05,20,16,12,16.40
2016,05,20,16,13,16.30
2016,05,20,16,14,16.30
2016,05,20,16,15,16.40
2016,05,20,16,16,16.40
2016,05,20,16,17,16.40
2016,05,20,16,18,16.50
2016,05,20,16,19,16.60
2016,05,20,16,20,16.70
2016,05,20,16,21,16.70
2016,05,20,16,22,16.70
2016,05,20,16,23,16.70
2016,05,20,16,24,16.80
2016,05,20,16,25,16.90
2016,05,20,16,26,16.90
2016,05,20,16,27,17.00
2016,05,20,16,28,17.20
2016,05,20,16,29,17.30
2016,05,20,16,30,17.40
2016,05,20,16,31,17.50
2016,05,20,16,32,17.60
2016,05,20,16,33,17.50
2016,05,20,16,34,17.50
2016,05,20,16,35,17.50
2016,05,20,16,36,17.60
2016,05,20,16,37,17.70
2016,05,20,16,38,17.70
2016,05,20,16,39,17.80
2016,05,20,16,40,17.80
2016,05,20,16,41,17.70
2016,05,20,16,42,17.60
2016,05,20,16,43,17.50
2016,05,20,16,44,17.30
2016,05,20,16,45,17.20
2016,05,20,16,46,17.10
2016,05,20,16,47,17.10
2016,05,20,16,48,17.00
2016,05,20,16,49,16.90
2016,05,20,16,50,16.80
2016,05,20,16,51,16.70
2016,05,20,16,52,16.60
2016,05,20,16,53,16.60
2016,05,20,16,54,16.60
2016,05,20,16,55,16.60
2016,05,20,16,56,16.40
2016,05,20,16,57,16.40
2016,05,20,16,58,16.40
2016,05,20,16,59,16.40
2016,05,20,17,00,16.60
2016,05,20,17,01,16.60
2016,05,20,17,02,16.70
2016,05,20,17,03,16.70
2016,05,20,17,04,16.70
2016,05,20,17,05,16.70
2016,05,20,17,06,16.80
2016,05,20,17,07,16.90
2016,05,20,17,08,17.00
2016,05,20,17,09,17.10
2016,05,20,17,10,17.20
2016,05,20,17,11,17.10
2016,05,20,17,12,17.00
2016,05,20,17,13,16.90
2016,05,20,17,14,16.90
2016,05,20,17,15,17.00
2016,05,20,17,16,17.00
2016,05,20,17,17,17.10
2016,05,20,17,18,17.20
2016,05,20,17,19,17.30
2016,05,20,17,20,17.30
2016,05,20,17,21,17.30
2016,05,20,17,22,17.20
2016,05,20,17,23,17.10
2016,05,20,17,24,17.10
2016,05,20,17,25,17.10
2016,05,20,17,26,17.10
2016,05,20,17,27,17.20
2016,05,20,17,28,17.30
2016,05,20,17,29,17.30
2016,05,20,17,30,17.30
2016,05,20,17,31,17.30